Starlink 31915

decayed
NORAD ID: 59796 Int'l Des: 2024-093 Owner: SPXS Country: US Constellation: starlink
LEOCIRCULAR
Gruppe

Über Starlink 31915

Beschreibung wird geladen...

Höhenverlauf

Altitude vs Time

uPlot chart will show altitude changes over time

Zweizeiliger Elementsatz

1 59796U 24093Q 24155.76002328 .26527668 92753-5 35333-2 0 9991
2 59796 42.9894 275.4640 0006538 334.8703 141.7133 16.34406060 3869
Epoch: 3. Juni 2024 • Age: 13443 hours

Aktueller Status

Position data unavailable
Startdatum 18. Mai 2024
Alter 1.5 years
Verglühungsdatum 3. Juni 2024
Typ internet

Technische Details

Klassifizierung Payload
Masse 730.00 kg
Trockenmasse 700.00 kg
Gesamtmasse 730.00 kg
Länge 0.30 m
Durchmesser 4.10 m
Spannweite 29.00 m
Form Box + pan
Hersteller SPXS
Bus-Typ Starlink V2M
Phasenstatus Unknown Transfer Status
Besitzer/Staat SPXS/US

Große Konstellationen

Loading constellations...